Location: Mentone
(34.5413°N, 85.5351°W)
Time: 22:21:27
(UTC-05:00)

Vanguard 3 - All Passes

Search period start: 31 October 2014 00:00
Search period end: 09 November 2014 23:00
Orbit: 508 x 3278 km, 33.3° (Epoch: 31 October)

Date Brightness Start Highest point End Pass type
(mag) Time Alt. Az. Time Alt. Az. Time Alt. Az.
31 Oct - 00:00:00 19° W 00:08:59 84° S 00:15:30 10° E night (unlit)
31 Oct - 02:13:41 10° W 02:21:22 54° SSW 02:25:59 10° SE night (unlit)
31 Oct - 18:11:22 10° SSW 18:26:10 28° SE 18:37:52 10° E visible
31 Oct - 20:24:04 10° SW 20:41:32 55° SSE 20:52:23 10° E visible
31 Oct - 22:41:18 10° WSW 22:56:09 81° S 23:04:12 10° E visible
01 Nov - 00:59:08 10° W 01:09:28 75° SSW 01:15:08 10° ESE night (unlit)
01 Nov - 03:15:35 10° W 03:20:49 25° SW 03:24:31 10° SSE night (unlit)
01 Nov - 17:00:51 10° S 17:12:04 18° SE 17:22:06 10° ESE daylight
01 Nov - 19:09:54 10° SW 19:27:31 44° SSE 19:39:54 10° E visible
01 Nov - 21:25:40 10° WSW 21:42:48 73° SSE 21:52:38 10° E visible
01 Nov - 23:43:54 10° W 23:57:00 84° S 00:04:00 10° E visible
02 Nov - 01:01:10 10° W 01:09:27 48° SSW 01:14:21 10° SE night (unlit)
02 Nov - 16:56:56 10° SSW 17:13:19 33° SE 17:26:27 10° E visible
02 Nov - 19:10:27 10° SW 19:28:57 62° SSE 19:40:40 10° E visible
02 Nov - 21:28:09 10° W 21:43:58 84° S 21:52:37 10° E visible
02 Nov - 23:46:20 10° W 23:57:30 70° SSW 00:03:35 10° ESE night (unlit)
03 Nov - 02:03:29 10° W 02:08:45 22° SW 02:12:30 10° S night (unlit)
03 Nov - 15:45:42 10° S 15:59:08 23° SE 16:11:19 10° E daylight
03 Nov - 17:56:05 10° SW 18:14:42 51° SSE 18:28:07 10° E visible
03 Nov - 20:12:20 10° WSW 20:30:22 78° SSE 20:40:56 10° E visible
03 Nov - 22:30:54 10° W 22:44:56 83° S 22:52:27 10° E visible
04 Nov - 00:48:34 10° W 00:57:24 43° SSW 01:02:38 10° SE night (unlit)
04 Nov - 14:38:12 10° SSE 14:45:11 13° SE 14:52:05 10° ESE daylight
04 Nov - 16:42:53 10° SSW 17:00:19 39° SE 17:14:44 10° E visible
04 Nov - 18:56:58 10° WSW 19:16:15 68° SSE 19:28:50 10° E visible
04 Nov - 21:15:00 10° W 21:31:42 85° S 21:40:59 10° E visible
04 Nov - 23:33:27 10° W 23:45:27 65° SSW 23:51:59 10° ESE visible
05 Nov - 01:51:24 10° W 01:56:33 19° SW 02:00:19 10° S night (unlit)
05 Nov - 15:31:12 10° S 15:46:04 28° SE 15:59:56 10° E daylight
05 Nov - 17:42:28 10° SW 18:01:46 57° SSE 18:16:12 10° E visible
05 Nov - 19:59:04 10° WSW 20:17:51 82° S 20:29:10 10° E visible
05 Nov - 22:17:50 10° W 22:32:46 80° S 22:40:51 10° ESE visible
06 Nov - 00:35:55 10° W 00:45:15 38° SW 00:50:50 10° SSE night (unlit)
06 Nov - 14:22:02 10° SSE 14:32:08 17° SE 14:42:22 10° ESE daylight
06 Nov - 16:29:07 10° SSW 16:47:12 45° SSE 17:02:47 10° E daylight
06 Nov - 18:43:38 10° WSW 19:03:28 74° SSE 19:16:56 10° E visible
06 Nov - 21:01:51 10° W 21:19:22 86° S 21:29:18 10° E visible
06 Nov - 23:20:29 10° W 23:33:17 60° SSW 23:40:18 10° SE visible
07 Nov - 01:39:23 10° W 01:44:15 16° SW 01:47:56 10° S night (unlit)
07 Nov - 15:17:10 10° SSW 15:32:52 33° SE 15:48:09 10° E daylight
07 Nov - 17:29:04 10° SW 17:48:45 63° SSE 18:04:09 10° E visible
07 Nov - 19:45:53 10° WSW 20:05:16 84° S 20:17:21 10° E visible
07 Nov - 22:04:43 10° W 22:20:31 77° SSW 22:29:11 10° ESE visible
08 Nov - 00:23:12 10° W 00:32:57 34° SW 00:38:54 10° SSE night (unlit)
08 Nov - 14:07:10 10° S 14:18:58 21° SE 14:31:23 10° E daylight
08 Nov - 16:15:38 10° SW 16:34:00 51° SSE 16:50:38 10° E daylight
08 Nov - 18:30:26 10° WSW 18:50:38 78° SSE 19:04:57 10° E visible
08 Nov - 20:48:41 10° W 21:06:56 85° S 21:17:35 10° E visible
08 Nov - 23:07:28 10° W 23:20:59 55° SSW 23:28:32 10° SE visible
09 Nov - 01:27:33 10° W 01:31:49 14° SW 01:35:15 10° SSW night (unlit)
09 Nov - 15:03:30 10° SSW 15:19:34 37° SE 15:36:03 10° E daylight
09 Nov - 17:15:52 10° SW 17:35:40 68° SSE 17:52:00 10° E visible
09 Nov - 19:32:45 10° W 19:52:37 86° S 20:05:29 10° E visible
09 Nov - 21:51:33 10° W 22:08:08 73° SSW 22:17:27 10° ESE visible
